Location: *
(45.5667°S, 177.5167°W)
Time: 22:48:52
(UTC+00:00)

Lacrosse 5 - Pass Details

Date: 29 May 2022
Orbit: 714 x 724 km, 57.0° (Epoch: 09 March)

Event Time Altitude Azimuth Distance (km) Brightness Sun altitude
Rises 07:41:31 0° 231° (SW) 3,157 5.9 -35.0°
Reaches altitude 10° 07:43:55 10° 233° (SW) 2,233 5.0 -35.4°
Enters shadow 07:46:00 24° 237° (WSW) 1,473 3.9 -35.8°
